ELARA 1

导读

ELARA 1是一颗计划于2025年6月23日发射的人造卫星,目前发射国家尚未公布(标注为TBD)。该卫星命名源自木星的不规则卫星木卫七Elara,延续了天文命名的传统。作为人类探索太空的新成员,它的发射将承载特定航天任务,待发射后相关任务细节、技术参数等信息预计会逐步公开,备受航天领域关注。

基本信息
目录编号:
64539
目录名称:
ELARA 1
国际标识:
2025-135M
轨道中心:
EARTH
卫星名称:
ELARA 1
卫星全名:
ELARA 1
卫星状态:
在轨 (已飞行446 天)
发射日期:
2025-06-23 UTC
国别 :
澳大利亚 (AU)
星等 :
--
该卫星已列入 空间交会检测服务 Space Conjunction Data Service (SCDS) ,当前飞行风险评估等级: 高风险
轨道信息
数据来源 国际轨道数据
星历时间: 2026-09-12T05:13:54+0800
12小时前
查看轨道信息
半长轴: 6873.342km
偏心率: 0.0002419
轨道倾角: 97.485°
近地点辐角 200.541°
升交点赤经 10.046°
平近点角 159.573°
近地点: 493.542km
远地点: 496.868km
周期: 94.517分钟
每日圈数: 15.235296
详细信息
使用方式:
暂无
2D轨道图
3D轨道图
轨道高度分析图
轨道倾角分析图
轨道综合分析图
查看轨道综合分析图
交会数据列表
事件ID 空间交会对象 最接近时刻(TCA) 交会距离 交会风险概率(CRP) 交会风险指数(CRI) 操作
CDM_260911-095306-453706-453924
ELARA 1 (64539)
2026-09-11T
09:53:33+0000
0.684 km
远距离
8.957202E-6 低风险 0.54
CDM_260914-145105-480806-453921
ELARA 1 (64539)
2026-09-14T
14:51:55+0000
1.739 km
极远距离
3.963408E-6 低风险 0.47
CDM_260914-211405-337006-453921
KHAYYAM (53370)
ELARA 1 (64539)
2026-09-14T
21:14:31+0000
1.956 km
极远距离
2.987461E-6 低风险 0.45
CDM_260911-112806-453706-453922
ELARA 1 (64539)
2026-09-11T
11:28:00+0000
0.968 km
远距离
2.779014E-6 低风险 0.44
CDM_260911-130206-453706-453924
ELARA 1 (64539)
2026-09-11T
13:02:28+0000
1.263 km
极远距离
1.192308E-6 低风险 0.37
CDM_260913-200806-453906-729521
ELARA 1 (64539)
2026-09-13T
20:08:14+0000
2.706 km
极远距离
8.599115E-7 极低风险 0.34
CDM_260911-143606-453706-453923
ELARA 1 (64539)
2026-09-11T
14:36:56+0000
1.568 km
极远距离
6.52626E-7 极低风险 0.31
CDM_260911-161106-453706-453923
ELARA 1 (64539)
2026-09-11T
16:11:24+0000
1.884 km
极远距离
4.275266E-7 极低风险 0.28
CDM_260911-174506-453706-453922
ELARA 1 (64539)
2026-09-11T
17:45:53+0000
2.210 km
极远距离
3.190488E-7 极低风险 0.25
与全量物体交会距离演化趋势
与全量物体交会风险概率演化趋势